Simultaneous Nadir Overpasses (SNOs) Predictions

Prediction of SNOs between LANDSAT-8 and METOP-B Satellite Orbit:

Table of predicted SNOs for the next 14.0 days since TLE Epoch: 7/18/2015
Index Date (LANDSAT-8) Time (LANDSAT-8) Lat,Lon (LANDSAT-8) SZA (LANDSAT-8 ) Date (METOP-B) Time (METOP-B) Lat,Lon (METOP-B) SZA (METOP-B ) Distance(km) Time Diff (sec)
1 07/19/2015 21:50:03 -81.11, 72.34 117.67 07/19/2015 21:49:28 -81.12, 72.49 117.67 2.80 35
2 07/19/2015 22:39:28 81.14,-119.55 62.41 07/19/2015 22:40:07 81.14,-119.54 62.43 0.10 39
3 07/22/2015 17:24:18 -81.12, 138.82 117.13 07/22/2015 17:23:49 -81.12, 138.86 117.14 0.84 29
4 07/22/2015 18:13:43 81.14, -53.09 62.94 07/22/2015 18:14:28 81.14, -53.22 62.95 2.19 45
5 07/25/2015 12:58:34 -81.11,-154.76 116.56 07/25/2015 12:58:11 -81.12,-154.80 116.57 0.77 23
6
